Weather in Rugozero

Russia / Republic of Karelia     64°04′56″N   32°46′44″E
temp.,
°C
wind,
m/s
gust,
m/s
humid.,
%
clouds,
%
prec.,
mm/h
press.,
hPa
HPBL,
m
28 february, sun
sun2800:00−8wsw239554 0.0 101360
03:00−6sw259377 0.0 1011131
06:00−6ssw259699 0.0 1009112
09:00−5ssw2296100 0.0 101083
12:00−2wsw249593 0.0 1011270
15:000w369696 0.0 1012430
18:000wnw4896100 0.0 1013433
21:00−2w4109493 0.0 1013298
1 march, mon
mon100:00−1wsw5129587 0.0 1011419
03:00+1w6139794 0.0 1010639
06:00+2w61592100 0.0 1007682
09:00+2w51392100 0.0 1006883
12:00+1wnw411100100 1.1 1004539
15:00+1w61297100 1.9 1003852
18:00+1w5139482 0.1 1001936
21:000nw6148391 0.2 1001905
2 march, tue
tue200:00−2wnw6158234 0.0 1002763
03:00−3wnw5148417 0.0 1003626
06:00−4wnw513840 0.0 1002543
09:00−4wnw4128818 0.0 1003614
12:00−2nw5108986 0.1 1004869
15:00−2nw6127488 0.1 10071255
18:00−5nw4148046 0.0 1010812
21:00−5nw4138623 0.0 1012554
3 march, wed
wed300:00−7wnw399228 0.0 1011232
03:00−7w4119215 0.0 1011293
06:00−6wnw4109235 0.0 1009335
09:00−7w4109462 0.0 1009287
12:00−3w498671 0.0 1006501
15:00−1wsw488349 0.0 1003648
18:00−3ssw259869 0.4 998186
21:00−3ese369784 4.9 993260
4 march, thu
thu400:00−4ne51196100 6.1 991704
03:00−6nne71393100 8.4 993910
06:00−9n51190100 0.3 996577
09:00−10nnw51292100 0.3 998521
12:00−7nnw51091100 0.2 999773
15:00−6nnw51091100 0.6 1000986
18:00−8n3989100 0.4 1002569
21:00−11n2296100 0.4 100362